User: anonymous   Login
Location: Unspecified
(0.0000°N, 0.0000°E)
Time: 14:31:35
(UTC+02:00)
Language:

Cosmos 773 Rocket - Orbit

View from above orbital plane
View from above orbital plane
View from above satellite
View from above satellite

Ground track
Ground track

The orbit data is extracted from the following two-line orbital elements,

1 08344U 75094B   15182.53145994  .00000043  00000-0  22508-4 0  9999
2 08344 074.0571 006.0634 0021049 087.0540 273.3023 14.38975671 82601
Epoch (UTC): 01 July 2015 12:45:18
Eccentricity: 0.0021049
inclination: 74.0571°
perigee height: 747 km
apogee height: 777 km
right ascension of ascending node: 6.0634°
argument of perigee: 87.0540°
revolutions per day: 14.38975671
mean anomaly at epoch: 273.3023°
orbit number at epoch: 8260

The dashed part of the orbit path shows where the satellite is in the earth's shadow,  

DLR